Location: ?????
(37.7324°N, 23.9257°E)
Time: 08:26:01
(UTC+00:00)

USA 238 DEB - Pass Details

Date: 29 November 2020
Orbit: 997 x 1215 km, 63.4° (Epoch: 11 January)

Event Time Altitude Azimuth Distance (km) Brightness Sun altitude
Exits shadow 02:58:25 58° 260° (W) 1,363 3.8 -27.3°
Maximum altitude 02:58:55 59° 243° (WSW) 1,352 3.9 -27.2°
Drops below altitude 10° 03:06:20 10° 166° (SSE) 3,146 6.4 -25.8°
Sets 03:09:09 0° 163° (SSE) 4,114 7.1 -25.2°
